Location: Limerick
(52.6650°N, 8.6230°W)
Time: 14:09:09
(UTC+01:00)

ISS - Visible Passes

Search period start: 29 March 2017 00:00
Search period end: 08 April 2017 00:00
Orbit: 399 x 409 km, 51.6° (Epoch: 29 March)

Date Brightness Start Highest point End Pass type
(mag) Time Alt. Az. Time Alt. Az. Time Alt. Az.
29 Mar -1.8 20:41:29 10° S 20:43:10 13° SE 20:44:52 10° ESE visible
29 Mar -2.4 22:15:54 10° SW 22:17:47 28° SW 22:17:47 28° SW visible
30 Mar -3.0 21:23:49 10° SW 21:26:46 32° SSE 21:28:00 24° ESE visible
30 Mar -1.4 22:59:44 10° WSW 23:00:41 18° WSW 23:00:41 18° WSW visible
31 Mar -3.9 22:07:24 10° WSW 22:10:38 62° SSE 22:10:43 62° SSE visible
01 Apr -3.5 21:15:07 10° WSW 21:18:17 49° SSE 21:20:36 17° E visible
01 Apr -2.3 22:51:22 10° W 22:53:16 32° W 22:53:16 32° W visible
02 Apr -3.9 21:58:58 10° W 22:02:14 74° S 22:03:03 46° ESE visible
02 Apr -0.8 23:35:23 10° W 23:35:43 12° W 23:35:43 12° W visible
03 Apr -3.8 21:06:35 10° WSW 21:09:50 66° S 21:12:46 12° E visible
03 Apr -3.0 22:42:57 10° W 22:45:25 46° WSW 22:45:25 46° WSW visible
04 Apr -3.9 21:50:31 10° W 21:53:47 75° S 21:55:04 34° ESE visible
04 Apr -1.1 23:26:59 10° W 23:27:42 15° W 23:27:42 15° W visible
05 Apr -3.8 20:58:05 10° W 21:01:20 75° S 21:04:37 10° E visible
05 Apr -3.3 22:34:30 10° W 22:37:19 47° SW 22:37:19 47° SW visible
06 Apr -3.7 21:42:01 10° W 21:45:16 63° SSW 21:46:54 26° ESE visible
06 Apr -1.2 23:18:41 10° W 23:19:32 15° WSW 23:19:32 15° WSW visible
07 Apr -2.9 22:26:03 10° W 22:29:03 34° SSW 22:29:06 34° SSW visible
